EFHKFMI Weather Reports


time (UTC)temp
C
wind
direction
speed
KPH
gust
KPH
rain 1hr
cm
rain 24hr
cm
rain mn
cm
humidity
%
barometer
mb
20260507052723 7 63 14.5 19.3 0.00 0.00 0.00 37 1015.8
20260507050722 6 50 12.9 16.1 0.00 0.00 0.00 39 1015.7
20260507044722 5 45 11.3 14.5 0.00 0.00 0.00 41 1015.8
20260507042722 5 46 11.3 16.1 0.00 0.00 0.00 42 1015.8
20260507040722 4 25 9.7 14.5 0.00 0.00 0.00 44 1015.8
20260507034722 3 25 11.3 16.1 0.00 0.00 0.00 47 1015.8
20260507032723 3 26 9.7 16.1 0.00 0.00 0.00 48 1015.8
20260507030722 1 28 9.7 12.9 0.00 0.00 0.00 54 1015.6
20260507024722 1 26 8.0 24.1 0.00 0.00 0.00 54 1015.6
20260507022722 1 4 6.4 17.7 0.00 0.00 0.00 54 1015.7
20260507020722 0 350 6.4 16.1 0.00 0.00 0.00 55 1015.7
20260507014722 2 23 4.8 16.1 0.00 0.00 0.00 49 1015.5
20260507012722 2 17 6.4 9.7 0.00 0.00 0.00 48 1015.5
20260507010722 2 23 8.0 11.3 0.00 0.00 0.00 49 1015.5
20260507004721 2 20 8.0 11.3 0.00 0.00 0.00 47 1015.4
20260507002722 2 20 9.7 14.5 0.00 0.00 0.00 45 1015.3
20260507000722 2 20 9.7 11.3 0.00 0.00 0.00 47 1015.3
20260506234722 3 9 11.3 14.5 0.00 0.00 0.00 41 1015.2
20260506232722 3 18 12.9 16.1 0.00 0.00 0.00 42 1015.2
20260506230723 3 9 11.3 14.5 0.00 0.00 0.00 42 1015.2
20260506224721 3 4 9.7 14.5 0.00 0.00 0.00 41 1015.2
20260506222722 3 360 9.7 12.9 0.00 0.00 0.00 41 1015.1
20260506220722 2 355 11.3 12.9 0.00 0.00 0.00 57 1015.1
20260506214721 0 1 8.0 9.7 0.00 0.00 0.00 77 1015.0
20260506212722 0 351 9.7 9.7 0.00 0.00 0.00 85 1014.9
20260506210721 0 349 6.4 8.0 0.00 0.00 0.00 83 1014.8
20260506204721 0 335 3.2 4.8 0.00 0.00 0.00 82 1014.7
20260506202721 1 333 1.6 3.2 0.00 0.00 0.00 79 1014.6
20260506200721 2 14 3.2 3.2 0.00 0.00 0.00 70 1014.6
20260506194721 3 347 1.6 3.2 0.00 0.00 0.00 66 1014.4
20260506192720 4 267 6.4 6.4 0.00 0.00 0.00 63 1014.3
20260506190721 5 276 6.4 8.0 0.00 0.00 0.00 54 1014.2
20260506184720 7 246 9.7 11.3 0.00 0.00 0.00 48 1014.1
20260506182721 8 241 9.7 12.9 0.00 0.00 0.00 45 1014.1
20260506180721 8 247 11.3 14.5 0.00 0.00 0.00 44 1014.1
20260506174721 8 237 12.9 17.7 0.00 0.00 0.00 42 1014.0
20260506172720 9 226 16.1 20.9 0.00 0.00 0.00 39 1013.8
20260506170720 10 220 17.7 22.5 0.00 0.00 0.00 38 1013.6
20260506164720 10 227 17.7 24.1 0.00 0.00 0.00 38 1013.6
20260506162720 10 223 20.9 25.7 0.00 0.00 0.00 37 1013.5
20260506160720 10 223 20.9 27.4 0.00 0.00 0.00 38 1013.5
20260506154721 10 217 24.1 30.6 0.00 0.00 0.00 38 1013.4
20260506152720 10 229 20.9 25.7 0.00 0.00 0.00 36 1013.4
20260506150720 10 225 19.3 27.4 0.00 0.00 0.00 33 1013.5
20260506144720 10 233 17.7 24.1 0.00 0.00 0.00 33 1013.6
20260506142719 10 223 17.7 27.4 0.00 0.00 0.00 31 1013.6
20260506140719 11 233 17.7 30.6 0.00 0.00 0.00 32 1013.6
20260506134719 10 238 19.3 29.0 0.00 0.00 0.00 33 1013.5
20260506132719 10 259 14.5 24.1 0.00 0.00 0.00 31 1013.4
20260506130719 10 303 9.7 16.1 0.00 0.00 0.00 26 1013.4
20260506124719 10 313 9.7 17.7 0.00 0.00 0.00 25 1013.5
20260506122719 10 286 16.1 22.5 0.00 0.00 0.00 27 1013.5
20260506120719 11 274 20.9 32.2 0.00 0.00 0.00 23 1013.4
20260506114719 11 262 16.1 27.4 0.00 0.00 0.00 24 1013.4
20260506112719 11 267 19.3 29.0 0.00 0.00 0.00 24 1013.5
20260506110719 11 286 20.9 27.4 0.00 0.00 0.00 23 1013.5
20260506104720 10 253 17.7 29.0 0.00 0.00 0.00 26 1013.3
20260506102720 11 271 19.3 25.7 0.00 0.00 0.00 25 1013.3
20260506100720 10 288 14.5 24.1 0.00 0.00 0.00 26 1013.2
20260506094720 10 277 20.9 30.6 0.00 0.00 0.00 27 1013.1
20260506092719 10 271 12.9 24.1 0.00 0.00 0.00 28 1013.1
20260506090719 10 303 14.5 27.4 0.00 0.00 0.00 30 1013.0
20260506084719 10 268 14.5 24.1 0.00 0.00 0.00 33 1012.9
20260506082720 8 291 17.7 24.1 0.00 0.00 0.00 36 1012.9
20260506080719 8 320 17.7 30.6 0.00 0.00 0.00 34 1012.8
20260506072719 8 273 17.7 25.7 0.00 0.00 0.00 40 1012.5
20260506070719 8 296 17.7 25.7 0.00 0.00 0.00 44 1012.5
20260506060719 6 281 12.9 17.7 0.00 0.00 0.00 56 1012.1